WX1N Weather Reports


Display with metric or nautical units.
time (UTC)temp
F
wind
direction
speed
MPH
gust
MPH
rain 1hr
in
rain 24hr
in
rain mn
in
humidity
%
barometer
mb
20260506165003 61 0 0.0 0.0 0.00 0.00 0.00 85 1005.0
20260506164503 61 0 0.0 0.0 0.00 0.00 0.00 86 1005.0
20260506164003 61 0 0.0 0.0 0.00 0.00 0.00 86 1005.0
20260506163502 61 0 0.0 0.0 0.00 0.00 0.00 87 1005.3
20260506163003 61 0 0.0 0.0 0.00 0.00 0.00 87 1005.2
20260506162503 62 0 0.0 0.0 0.00 0.00 0.00 87 1005.4
20260506162003 62 0 0.0 0.0 0.00 0.00 0.00 87 1005.3
20260506161503 62 0 0.0 0.0 0.00 0.00 0.00 87 1005.4
20260506161002 62 0 0.0 0.0 0.00 0.00 0.00 86 1005.4
20260506160503 62 0 0.0 0.0 0.00 0.00 0.00 86 1005.5
20260506160002 62 0 0.0 0.0 0.00 0.00 0.00 85 1005.4
20260506155503 62 0 0.0 0.0 0.00 0.00 0.00 85 1005.5
20260506155003 62 0 0.0 0.0 0.00 0.00 0.00 86 1005.7
20260506154503 62 0 0.0 0.0 0.00 0.00 0.00 86 1005.8
20260506154003 62 0 0.0 0.0 0.00 0.00 0.00 86 1005.9
20260506153502 62 0 0.0 0.0 0.00 0.00 0.00 86 1006.0
20260506153003 62 0 0.0 0.0 0.00 0.00 0.00 86 1006.1
20260506152502 62 0 0.0 0.0 0.00 0.00 0.00 86 1006.1
20260506152003 62 0 0.0 0.0 0.00 0.00 0.00 85 1006.4
20260506151502 62 0 0.0 0.0 0.00 0.00 0.00 84 1006.4
20260506151003 62 0 0.0 0.0 0.00 0.00 0.00 83 1006.6
20260506150503 62 0 0.0 0.0 0.00 0.00 0.00 83 1006.6
20260506150003 62 0 0.0 0.0 0.00 0.00 0.00 82 1006.7
20260506145503 62 0 0.0 0.0 0.00 0.00 0.00 82 1006.8
20260506145003 62 0 0.0 0.0 0.00 0.00 0.00 82 1006.7
20260506144503 62 0 0.0 0.0 0.00 0.00 0.00 82 1006.5
20260506144002 62 0 0.0 0.0 0.00 0.00 0.00 81 1006.5
20260506143503 62 0 0.0 0.0 0.00 0.00 0.00 82 1006.3
20260506143003 62 0 0.0 0.0 0.00 0.00 0.00 81 1006.3
20260506142503 62 0 0.0 0.0 0.00 0.00 0.00 81 1006.2
20260506142003 62 0 0.0 0.0 0.00 0.00 0.00 81 1006.3
20260506141502 62 0 0.0 0.0 0.00 0.00 0.00 81 1006.4
20260506141003 62 0 0.0 0.0 0.00 0.00 0.00 81 1006.5
20260506140502 62 0 0.0 0.0 0.00 0.00 0.00 81 1006.3
20260506140003 62 0 0.0 0.0 0.00 0.00 0.00 82 1006.4
20260506135502 62 0 0.0 0.0 0.00 0.00 0.00 82 1006.4
20260506135003 62 0 0.0 0.0 0.00 0.00 0.00 82 1006.4
20260506134503 62 0 0.0 0.0 0.00 0.00 0.00 82 1006.3
20260506134003 61 0 0.0 0.0 0.00 0.00 0.00 83 1006.4
20260506133503 61 0 0.0 0.0 0.00 0.00 0.00 83 1006.4
20260506133002 61 0 0.0 0.0 0.00 0.00 0.00 83 1006.4
20260506132503 61 0 0.0 0.0 0.00 0.00 0.00 84 1006.3
20260506132002 60 0 0.0 0.0 0.00 0.00 0.00 83 1006.6
20260506131503 60 0 0.0 0.0 0.00 0.00 0.00 84 1006.6
20260506131002 60 0 0.0 0.0 0.00 0.00 0.00 84 1006.9
20260506130503 60 0 0.0 0.0 0.00 0.00 0.00 84 1006.9
20260506130003 60 0 0.0 0.0 0.00 0.00 0.00 84 1007.1
20260506125503 60 0 0.0 0.0 0.00 0.00 0.00 84 1007.1
20260506125003 60 0 0.0 0.0 0.00 0.00 0.00 85 1007.2
20260506124503 60 0 0.0 0.0 0.00 0.00 0.00 85 1007.2
20260506124003 60 0 0.0 0.0 0.00 0.00 0.00 85 1007.3
20260506123503 59 0 0.0 0.0 0.00 0.00 0.00 85 1007.3
20260506123003 59 0 0.0 0.0 0.00 0.00 0.00 85 1006.9
20260506122502 59 0 0.0 0.0 0.00 0.00 0.00 85 1006.8
20260506122003 59 0 0.0 0.0 0.00 0.00 0.00 85 1006.7
20260506121502 59 0 0.0 0.0 0.00 0.00 0.00 85 1007.0
20260506121003 59 0 0.0 0.0 0.00 0.00 0.00 84 1006.7
20260506120502 59 0 0.0 0.0 0.00 0.00 0.00 85 1006.7
20260506120003 59 0 0.0 0.0 0.00 0.00 0.00 85 1006.7
20260506115502 59 0 0.0 0.0 0.00 0.00 0.00 85 1006.9
20260506115003 59 0 0.0 0.0 0.00 0.00 0.00 85 1006.9
20260506114503 59 0 0.0 0.0 0.00 0.00 0.00 86 1007.1
20260506114003 58 0 0.0 0.0 0.00 0.00 0.00 86 1007.1
20260506113503 58 0 0.0 0.0 0.00 0.00 0.00 86 1007.2
20260506113002 58 0 0.0 0.0 0.00 0.00 0.00 87 1007.0
20260506112503 57 0 0.0 0.0 0.00 0.00 0.00 85 1007.0
20260506112003 56 0 0.0 0.0 0.00 0.00 0.00 77 1007.0
20260506111503 54 0 0.0 0.0 0.00 0.00 0.00 74 1006.8
20260506111003 54 0 0.0 0.0 0.00 0.00 0.00 74 1006.9
20260506110503 52 0 0.0 0.0 0.00 0.00 0.00 75 1007.2
20260506110003 52 0 0.0 0.0 0.00 0.00 0.00 76 1007.2
20260506105503 51 0 0.0 0.0 0.00 0.00 0.00 77 1007.1
20260506105003 51 0 0.0 0.0 0.00 0.00 0.00 78 1007.0
20260506104503 51 0 0.0 0.0 0.00 0.00 0.00 78 1007.0
20260506104003 50 0 0.0 0.0 0.00 0.00 0.00 79 1007.0
20260506103503 50 0 0.0 0.0 0.00 0.00 0.00 80 1006.9
20260506103003 50 0 0.0 0.0 0.00 0.00 0.00 81 1007.0
20260506102503 50 0 0.0 0.0 0.00 0.00 0.00 82 1007.1
20260506102003 50 0 0.0 0.0 0.00 0.00 0.00 82 1007.0
20260506101503 50 0 0.0 0.0 0.00 0.00 0.00 82 1007.1
20260506101003 50 0 0.0 0.0 0.00 0.00 0.00 81 1007.1
20260506100003 50 0 0.0 0.0 0.00 0.00 0.00 82 1007.0
20260506095503 50 0 0.0 0.0 0.00 0.00 0.00 82 1007.2
20260506095002 50 0 0.0 0.0 0.00 0.00 0.00 83 1007.3
20260506094503 50 0 0.0 0.0 0.00 0.00 0.00 85 1006.9
20260506094003 50 0 0.0 0.0 0.00 0.00 0.00 86 1007.0
20260506093503 51 0 0.0 0.0 0.00 0.00 0.00 86 1007.0
20260506093003 51 0 0.0 0.0 0.00 0.00 0.00 85 1007.0
20260506092503 51 0 0.0 0.0 0.00 0.00 0.00 84 1007.0
20260506092003 51 0 0.0 0.0 0.00 0.00 0.00 84 1007.0
20260506091503 51 0 0.0 0.0 0.00 0.00 0.00 85 1007.0
20260506091003 51 0 0.0 0.0 0.00 0.00 0.00 86 1006.9
20260506090503 52 0 0.0 0.0 0.00 0.00 0.00 86 1007.0
20260506090003 52 0 0.0 0.0 0.00 0.00 0.00 87 1007.0
20260506085503 52 0 0.0 0.0 0.00 0.00 0.00 87 1007.0
20260506085002 52 0 0.0 0.0 0.00 0.00 0.00 87 1007.0
20260506084503 53 0 0.0 0.0 0.00 0.00 0.00 87 1007.1
20260506084003 53 0 0.0 0.0 0.00 0.00 0.00 87 1007.1
20260506083503 53 0 0.0 0.0 0.00 0.00 0.00 87 1007.2
20260506083003 53 0 0.0 0.0 0.00 0.00 0.00 87 1007.2
20260506082503 53 0 0.0 0.0 0.00 0.00 0.00 87 1007.3
20260506082003 53 0 0.0 0.0 0.00 0.00 0.00 88 1007.2
20260506081503 53 0 0.0 0.0 0.00 0.00 0.00 87 1007.4
20260506081003 54 0 0.0 0.0 0.00 0.00 0.00 87 1007.5
20260506080503 54 0 0.0 0.0 0.00 0.00 0.00 87 1007.5
20260506073502 56 0 0.0 0.0 0.00 0.00 0.00 84 1007.5
20260506073003 57 0 0.0 0.0 0.00 0.00 0.00 84 1007.4
20260506072503 57 0 0.0 0.0 0.00 0.00 0.00 84 1007.4
20260506072003 57 0 0.0 0.0 0.00 0.00 0.00 84 1007.4
20260506071503 57 0 0.0 0.0 0.00 0.00 0.00 84 1007.4
20260506071003 58 0 0.0 0.0 0.00 0.00 0.00 83 1007.4
20260506070503 58 0 0.0 0.0 0.00 0.00 0.00 82 1007.4
20260506062503 59 0 0.0 0.0 0.00 0.00 0.00 80 1007.1
20260506062003 59 0 0.0 0.0 0.00 0.00 0.00 80 1007.1
20260506061503 59 0 0.0 0.0 0.00 0.00 0.00 80 1007.0
20260506061003 60 0 0.0 0.0 0.00 0.00 0.00 78 1007.1
20260506060503 61 0 0.0 0.0 0.00 0.00 0.00 76 1007.1
20260506051003 64 0 0.0 0.0 0.00 0.00 0.00 73 1007.1
20260506050503 64 0 0.0 0.0 0.00 0.00 0.00 73 1007.2
20260506045003 64 0 0.0 0.0 0.00 0.00 0.00 74 1007.0
20260506044504 64 0 0.0 0.0 0.00 0.00 0.00 76 1007.1
20260506044003 63 0 0.0 0.0 0.00 0.00 0.00 77 1007.0
20260506043503 63 0 0.0 0.0 0.00 0.00 0.00 80 1007.0
20260506043003 63 0 0.0 0.0 0.00 0.00 0.00 80 1007.1
20260506042503 63 0 0.0 0.0 0.00 0.00 0.00 79 1007.1
20260506042004 62 0 0.0 0.0 0.00 0.00 0.00 81 1007.0
20260506041503 62 0 0.0 0.0 0.00 0.00 0.00 81 1006.9
20260506041004 63 0 0.0 0.0 0.00 0.00 0.00 80 1006.8
20260506040503 64 0 0.0 0.0 0.00 0.00 0.00 78 1006.6
20260506040003 64 0 0.0 0.0 0.00 0.00 0.00 78 1006.4
20260506035503 64 0 0.0 0.0 0.00 0.00 0.00 79 1006.7
20260506035003 63 0 0.0 0.0 0.00 0.00 0.00 81 1006.7
20260506034503 62 0 0.0 0.0 0.00 0.00 0.00 83 1006.8
20260506034003 62 0 0.0 0.0 0.00 0.00 0.00 83 1006.8
20260506033503 62 0 0.0 0.0 0.00 0.00 0.00 84 1006.9
20260506033003 62 0 0.0 0.0 0.00 0.00 0.00 85 1006.9
20260506032503 61 0 0.0 0.0 0.00 0.00 0.00 86 1006.9
20260506032002 60 0 0.0 0.0 0.00 0.00 0.00 86 1006.9
20260506031503 59 0 0.0 0.0 0.00 0.00 0.00 86 1006.9
20260506031003 59 0 0.0 0.0 0.00 0.00 0.00 86 1006.8
20260506030503 59 0 0.0 0.0 0.00 0.00 0.00 85 1006.8
20260506030003 59 0 0.0 0.0 0.00 0.00 0.00 85 1006.9
20260506025503 59 0 0.0 0.0 0.00 0.00 0.00 85 1007.0
20260506025003 59 0 0.0 0.0 0.00 0.00 0.00 85 1006.8
20260506024503 59 0 0.0 0.0 0.00 0.00 0.00 85 1006.8
20260506024003 59 0 0.0 0.0 0.00 0.00 0.00 85 1006.8
20260506023503 59 0 0.0 0.0 0.00 0.00 0.00 85 1006.8
20260506023003 59 0 0.0 0.0 0.00 0.00 0.00 85 1006.7
20260506022503 58 0 0.0 0.0 0.00 0.00 0.00 86 1006.7
20260506022003 59 0 0.0 0.0 0.00 0.00 0.00 86 1006.9
20260506021503 59 0 0.0 0.0 0.00 0.00 0.00 86 1006.8
20260506021003 59 0 0.0 0.0 0.00 0.00 0.00 87 1006.9
20260506020503 59 0 0.0 0.0 0.00 0.00 0.00 87 1006.8
20260506020004 59 0 0.0 0.0 0.00 0.00 0.00 87 1006.5
20260506015503 60 0 0.0 0.0 0.00 0.00 0.00 87 1006.7
20260506015003 60 0 0.0 0.0 0.00 0.00 0.00 87 1006.6
20260506014503 60 0 0.0 0.0 0.00 0.00 0.00 87 1006.7
20260506014003 60 0 0.0 0.0 0.00 0.00 0.00 86 1006.5
20260506013503 60 0 0.0 0.0 0.00 0.00 0.00 85 1006.4
20260506013003 61 0 0.0 0.0 0.00 0.00 0.00 85 1006.3
20260506012503 61 0 0.0 0.0 0.00 0.00 0.00 85 1006.3
20260506012003 62 0 0.0 0.0 0.00 0.00 0.00 84 1006.2
20260506011503 62 0 0.0 0.0 0.00 0.00 0.00 83 1006.1
20260506011003 62 0 0.0 0.0 0.00 0.00 0.00 82 1006.3
20260506010503 62 0 0.0 0.0 0.00 0.00 0.00 83 1006.3
20260506010004 62 0 0.0 0.0 0.00 0.00 0.00 84 1006.4
20260506005503 62 0 0.0 0.0 0.00 0.00 0.00 84 1006.1
20260506005003 63 0 0.0 0.0 0.00 0.00 0.00 83 1005.9
20260506004503 63 0 0.0 0.0 0.00 0.00 0.00 83 1005.8
20260506004003 63 0 0.0 0.0 0.00 0.00 0.00 83 1006.0
20260506003504 62 0 0.0 0.0 0.00 0.00 0.00 85 1006.0
20260506003003 62 0 0.0 0.0 0.00 0.00 0.00 86 1006.0
20260506002503 61 0 0.0 0.0 0.00 0.00 0.00 86 1006.0
20260506002003 61 0 0.0 0.0 0.00 0.00 0.00 86 1005.9
20260506001503 61 0 0.0 0.0 0.00 0.00 0.00 86 1005.9
20260506001004 61 0 0.0 0.0 0.00 0.00 0.00 86 1005.8
20260506000503 62 0 0.0 0.0 0.00 0.00 0.00 86 1005.8
20260506000003 62 0 0.0 0.0 0.00 0.00 0.00 86 1005.8
20260505235504 62 0 0.0 0.0 0.00 0.00 0.00 86 1005.8
20260505235003 62 0 0.0 0.0 0.00 0.00 0.00 86 1005.6
20260505234503 62 0 0.0 0.0 0.00 0.00 0.00 86 1005.6
20260505234003 62 0 0.0 0.0 0.00 0.00 0.00 86 1005.6
20260505233503 62 0 0.0 0.0 0.00 0.00 0.00 86 1005.6
20260505233004 62 0 0.0 0.0 0.00 0.00 0.00 86 1005.5
20260505232503 63 0 0.0 0.0 0.00 0.00 0.00 86 1005.4
20260505232003 62 0 0.0 0.0 0.00 0.00 0.00 86 1005.5
20260505231503 63 0 0.0 0.0 0.00 0.00 0.00 86 1005.5
20260505231003 63 0 0.0 0.0 0.00 0.00 0.00 86 1005.4
20260505230505 63 0 0.0 0.0 0.00 0.00 0.00 86 1005.3
20260505230003 63 0 0.0 0.0 0.00 0.00 0.00 86 1005.2
20260505225504 63 0 0.0 0.0 0.00 0.00 0.00 86 1005.1
20260505225003 64 0 0.0 0.0 0.00 0.00 0.00 86 1004.9
20260505224503 64 0 0.0 0.0 0.00 0.00 0.00 86 1004.7
20260505224003 64 0 0.0 0.0 0.00 0.00 0.00 86 1004.6
20260505223503 63 0 0.0 0.0 0.00 0.00 0.00 86 1004.7
20260505223004 63 0 0.0 0.0 0.00 0.00 0.00 86 1004.7
20260505222503 63 0 0.0 0.0 0.00 0.00 0.00 86 1004.6
20260505222004 64 0 0.0 0.0 0.00 0.00 0.00 85 1004.8
20260505221503 64 0 0.0 0.0 0.00 0.00 0.00 86 1004.4
20260505221003 64 0 0.0 0.0 0.00 0.00 0.00 86 1004.1
20260505220504 64 0 0.0 0.0 0.00 0.00 0.00 86 1004.1
20260505220003 64 0 0.0 0.0 0.00 0.00 0.00 85 1004.0
20260505215504 65 0 0.0 0.0 0.00 0.00 0.00 84 1003.5
20260505215004 65 0 0.0 0.0 0.00 0.00 0.00 83 1003.4
20260505214503 65 0 0.0 0.0 0.00 0.00 0.00 82 1003.5
20260505214004 65 0 0.0 0.0 0.00 0.00 0.00 85 1003.4
20260505213503 64 0 0.0 0.0 0.00 0.00 0.00 85 1003.5
20260505213003 64 0 0.0 0.0 0.00 0.00 0.00 82 1003.1
20260505212504 65 0 0.0 0.0 0.00 0.00 0.00 80 1003.9
20260505212003 66 0 0.0 0.0 0.00 0.00 0.00 77 1003.4
20260505211503 67 0 0.0 0.0 0.00 0.00 0.00 74 1003.1
20260505211003 70 0 0.0 0.0 0.00 0.00 0.00 66 1003.4
20260505210503 72 0 0.0 0.0 0.00 0.00 0.00 57 1003.6
20260505210004 75 0 0.0 0.0 0.00 0.00 0.00 49 1003.6
20260505205503 79 0 0.0 0.0 0.00 0.00 0.00 39 1003.3
20260505205004 80 0 0.0 0.0 0.00 0.00 0.00 36 1001.6
20260505204503 80 0 0.0 0.0 0.00 0.00 0.00 36 1001.4
20260505204003 80 0 0.0 0.0 0.00 0.00 0.00 34 1001.2
20260505203504 80 0 0.0 0.0 0.00 0.00 0.00 36 1001.2
20260505203003 81 0 0.0 0.0 0.00 0.00 0.00 36 1001.0
20260505202504 81 0 0.0 0.0 0.00 0.00 0.00 36 1001.0
20260505202003 81 0 0.0 0.0 0.00 0.00 0.00 36 1001.0
20260505201503 81 0 0.0 0.0 0.00 0.00 0.00 36 1001.1
20260505201004 81 0 0.0 0.0 0.00 0.00 0.00 35 1001.3
20260505200503 81 0 0.0 0.0 0.00 0.00 0.00 34 1001.2
20260505200004 81 0 0.0 0.0 0.00 0.00 0.00 33 1001.4
20260505195503 81 0 0.0 0.0 0.00 0.00 0.00 34 1001.5
20260505195003 82 0 0.0 0.0 0.00 0.00 0.00 33 1001.5
20260505194503 82 0 0.0 0.0 0.00 0.00 0.00 33 1001.4
20260505194003 81 0 0.0 0.0 0.00 0.00 0.00 33 1001.4
20260505193504 82 0 0.0 0.0 0.00 0.00 0.00 34 1001.4
20260505193003 82 0 0.0 0.0 0.00 0.00 0.00 35 1001.5
20260505192504 82 0 0.0 0.0 0.00 0.00 0.00 33 1001.6
20260505192003 82 0 0.0 0.0 0.00 0.00 0.00 34 1001.6
20260505191503 81 0 0.0 0.0 0.00 0.00 0.00 34 1001.6
20260505191003 81 0 0.0 0.0 0.00 0.00 0.00 34 1001.5
20260505190503 81 0 0.0 0.0 0.00 0.00 0.00 34 1001.6
20260505190003 81 0 0.0 0.0 0.00 0.00 0.00 36 1001.7
20260505185503 81 0 0.0 0.0 0.00 0.00 0.00 36 1001.7
20260505185004 81 0 0.0 0.0 0.00 0.00 0.00 36 1001.8
20260505184503 81 0 0.0 0.0 0.00 0.00 0.00 35 1001.8
20260505184004 80 0 0.0 0.0 0.00 0.00 0.00 37 1001.8
20260505183503 80 0 0.0 0.0 0.00 0.00 0.00 36 1002.0
20260505183003 80 0 0.0 0.0 0.00 0.00 0.00 37 1002.0
20260505182504 80 0 0.0 0.0 0.00 0.00 0.00 38 1002.0
20260505182003 80 0 0.0 0.0 0.00 0.00 0.00 37 1002.2
20260505181504 80 0 0.0 0.0 0.00 0.00 0.00 36 1002.4
20260505181003 81 0 0.0 0.0 0.00 0.00 0.00 34 1002.5
20260505180503 81 0 0.0 0.0 0.00 0.00 0.00 34 1002.6
20260505180004 81 0 0.0 0.0 0.00 0.00 0.00 35 1002.6
20260505175503 81 0 0.0 0.0 0.00 0.00 0.00 35 1002.7
20260505175004 80 0 0.0 0.0 0.00 0.00 0.00 35 1002.8
20260505174503 80 0 0.0 0.0 0.00 0.00 0.00 40 1002.8
20260505174003 80 0 0.0 0.0 0.00 0.00 0.00 40 1003.0
20260505173503 80 0 0.0 0.0 0.00 0.00 0.00 42 1002.9
20260505173004 80 0 0.0 0.0 0.00 0.00 0.00 38 1002.9
20260505172504 79 0 0.0 0.0 0.00 0.00 0.00 41 1003.1
20260505172003 80 0 0.0 0.0 0.00 0.00 0.00 42 1003.1
20260505171504 79 0 0.0 0.0 0.00 0.00 0.00 42 1003.1
20260505171003 79 0 0.0 0.0 0.00 0.00 0.00 45 1003.2
20260505170504 79 0 0.0 0.0 0.00 0.00 0.00 44 1003.3
20260505170003 79 0 0.0 0.0 0.00 0.00 0.00 43 1003.3
20260505165503 80 0 0.0 0.0 0.00 0.00 0.00 44 1003.4